Saint Bonnet de Bellac- Haute Vienne - France
Donnes mto: jeudi, 01/12/2011
Date Horaire Temp. E. Hum. E. P.atmo. Pluie Vent Direction Direction Ensoleilleme Solaire P. de rose Temp au vent Rafales
01/12/2011 00:00 8,8 C 93 % 1020,8 hPa 0,0 mm 4,3 km/h (1 Bft) S 180 0 min 0 W/m 7,7 C 8,8 C 10,8 km/h (2 Bft)
01/12/2011 00:05 8,9 C 93 % 1020,8 hPa 0,0 mm 4,7 km/h (1 Bft) S 180 0 min 0 W/m 7,8 C 8,6 C 4,7 km/h (1 Bft)
01/12/2011 00:10 9,1 C 93 % 1020,7 hPa 0,0 mm 5,8 km/h (2 Bft) S-SO 202 0 min 0 W/m 8,0 C 8,5 C 11,2 km/h (2 Bft)
01/12/2011 00:15 9,1 C 92 % 1020,7 hPa 0,0 mm 1,8 km/h (1 Bft) S-SO 202 0 min 0 W/m 7,9 C 9,1 C 4,3 km/h (1 Bft)
01/12/2011 00:20 9,2 C 92 % 1020,7 hPa 0,0 mm 2,5 km/h (1 Bft) SE 135 0 min 0 W/m 8,0 C 9,2 C 4,3 km/h (1 Bft)
01/12/2011 00:25 9,3 C 92 % 1020,6 hPa 0,0 mm 6,1 km/h (2 Bft) S-SO 202 0 min 0 W/m 8,1 C 8,6 C 11,5 km/h (2 Bft)
01/12/2011 00:30 9,4 C 92 % 1020,5 hPa 0,0 mm 7,6 km/h (2 Bft) S 180 0 min 0 W/m 8,2 C 8,4 C 9,7 km/h (2 Bft)
01/12/2011 00:35 9,5 C 91 % 1020,4 hPa 0,0 mm 6,1 km/h (2 Bft) S 180 0 min 0 W/m 8,1 C 8,9 C 12,6 km/h (3 Bft)
01/12/2011 00:40 9,7 C 91 % 1020,3 hPa 0,0 mm 11,5 km/h (2 Bft) E-SE 112 0 min 0 W/m 8,3 C 8,0 C 19,4 km/h (3 Bft)
01/12/2011 00:45 9,8 C 91 % 1020,3 hPa 0,0 mm 9,7 km/h (2 Bft) SO 225 0 min 0 W/m 8,4 C 8,4 C 14,4 km/h (3 Bft)
01/12/2011 00:50 9,9 C 90 % 1020,2 hPa 0,0 mm 9,4 km/h (2 Bft) O-SO 247 0 min 0 W/m 8,3 C 8,6 C 19,4 km/h (3 Bft)
01/12/2011 00:55 10,1 C 90 % 1020,3 hPa 0,0 mm 6,5 km/h (2 Bft) SO 225 0 min 0 W/m 8,5 C 10,1 C 10,8 km/h (2 Bft)
01/12/2011 01:00 10,3 C 89 % 1020,4 hPa 0,0 mm 9,7 km/h (2 Bft) S-SO 202 0 min 0 W/m 8,6 C 10,3 C 9,7 km/h (2 Bft)
01/12/2011 01:05 10,3 C 88 % 1020,3 hPa 0,0 mm 9,7 km/h (2 Bft) S-SO 202 0 min 0 W/m 8,4 C 10,3 C 16,6 km/h (3 Bft)
01/12/2011 01:10 10,4 C 88 % 1020,2 hPa 0,0 mm 7,6 km/h (2 Bft) O-SO 247 0 min 0 W/m 8,5 C 10,4 C 16,6 km/h (3 Bft)
01/12/2011 01:15 10,5 C 88 % 1020,3 hPa 0,0 mm 6,5 km/h (2 Bft) S-SO 202 0 min 0 W/m 8,6 C 10,5 C 18,7 km/h (3 Bft)
01/12/2011 01:20 10,6 C 87 % 1020,4 hPa 0,0 mm 9,7 km/h (2 Bft) S-SO 202 0 min 0 W/m 8,5 C 10,6 C 13,7 km/h (3 Bft)
01/12/2011 01:25 10,6 C 87 % 1020,4 hPa 0,0 mm 7,9 km/h (2 Bft) S-SE 157 0 min 0 W/m 8,5 C 10,6 C 12,6 km/h (3 Bft)
01/12/2011 01:30 10,6 C 87 % 1020,3 hPa 0,0 mm 10,4 km/h (2 Bft) S-SO 202 0 min 0 W/m 8,5 C 10,6 C 12,6 km/h (3 Bft)
01/12/2011 01:35 10,7 C 87 % 1020,3 hPa 0,0 mm 9,0 km/h (2 Bft) S 180 0 min 0 W/m 8,6 C 10,7 C 18,7 km/h (3 Bft)
01/12/2011 01:40 10,7 C 87 % 1020,2 hPa 0,0 mm 7,6 km/h (2 Bft) S 180 0 min 0 W/m 8,6 C 10,7 C 14,8 km/h (3 Bft)
01/12/2011 01:45 10,7 C 86 % 1020,2 hPa 0,0 mm 6,1 km/h (2 Bft) S-SE 157 0 min 0 W/m 8,5 C 10,7 C 9,4 km/h (2 Bft)
01/12/2011 01:50 10,6 C 86 % 1020,2 hPa 0,0 mm 6,8 km/h (2 Bft) S-SE 157 0 min 0 W/m 8,4 C 10,6 C 15,1 km/h (3 Bft)
01/12/2011 01:55 10,6 C 86 % 1020,1 hPa 0,0 mm 9,7 km/h (2 Bft) S 180 0 min 0 W/m 8,4 C 10,6 C 9,7 km/h (2 Bft)
01/12/2011 02:02 10,6 C 87 % 1020,0 hPa 0,0 mm 8,3 km/h (2 Bft) S-SO 202 0 min 0 W/m 8,5 C 10,6 C 8,3 km/h (2 Bft)
01/12/2011 02:05 10,6 C 86 % 1020,0 hPa 0,0 mm 10,1 km/h (2 Bft) S-SO 202 0 min 0 W/m 8,4 C 10,6 C 10,1 km/h (2 Bft)
01/12/2011 02:10 10,6 C 86 % 1020,0 hPa 0,0 mm 11,9 km/h (2 Bft) SO 225 0 min 0 W/m 8,4 C 10,6 C 21,6 km/h (4 Bft)
01/12/2011 02:15 10,6 C 86 % 1019,9 hPa 0,0 mm 11,5 km/h (2 Bft) S-SO 202 0 min 0 W/m 8,4 C 10,6 C 17,3 km/h (3 Bft)
01/12/2011 02:20 10,6 C 86 % 1019,8 hPa 0,0 mm 10,4 km/h (2 Bft) S-SO 202 0 min 0 W/m 8,4 C 10,6 C 16,2 km/h (3 Bft)
01/12/2011 02:25 10,6 C 86 % 1019,8 hPa 0,0 mm 8,3 km/h (2 Bft) S-SO 202 0 min 0 W/m 8,4 C 10,6 C 8,6 km/h (2 Bft)
01/12/2011 02:30 10,5 C 86 % 1019,7 hPa 0,0 mm 8,3 km/h (2 Bft) S-SO 202 0 min 0 W/m 8,3 C 10,5 C 9,7 km/h (2 Bft)
01/12/2011 02:35 10,5 C 86 % 1019,8 hPa 0,0 mm 9,7 km/h (2 Bft) S-SO 202 0 min 0 W/m 8,3 C 10,5 C 11,9 km/h (2 Bft)
01/12/2011 02:40 10,5 C 86 % 1019,9 hPa 0,0 mm 9,4 km/h (2 Bft) S-SE 157 0 min 0 W/m 8,3 C 10,5 C 9,4 km/h (2 Bft)
01/12/2011 02:45 10,5 C 86 % 1020,0 hPa 0,0 mm 9,4 km/h (2 Bft) SO 225 0 min 0 W/m 8,3 C 10,5 C 11,5 km/h (2 Bft)
01/12/2011 02:50 10,5 C 86 % 1020,0 hPa 0,0 mm 12,2 km/h (2 Bft) S-SO 202 0 min 0 W/m 8,3 C 10,5 C 19,1 km/h (3 Bft)
01/12/2011 02:55 10,6 C 85 % 1020,0 hPa 0,0 mm 13,7 km/h (3 Bft) S 180 0 min 0 W/m 8,2 C 10,6 C 19,8 km/h (3 Bft)
01/12/2011 03:00 10,7 C 85 % 1020,0 hPa 0,0 mm 10,8 km/h (2 Bft) SO 225 0 min 0 W/m 8,3 C 10,7 C 13,7 km/h (3 Bft)
01/12/2011 03:05 10,6 C 85 % 1020,0 hPa 0,0 mm 12,2 km/h (2 Bft) S-SO 202 0 min 0 W/m 8,2 C 10,6 C 18,0 km/h (3 Bft)
01/12/2011 03:10 10,6 C 85 % 1019,9 hPa 0,0 mm 13,3 km/h (3 Bft) S-SO 202 0 min 0 W/m 8,2 C 10,6 C 19,8 km/h (3 Bft)
01/12/2011 03:15 10,6 C 84 % 1019,9 hPa 0,0 mm 10,4 km/h (2 Bft) S-SO 202 0 min 0 W/m 8,0 C 10,6 C 13,3 km/h (3 Bft)
01/12/2011 03:20 10,6 C 84 % 1019,8 hPa 0,0 mm 11,9 km/h (2 Bft) S-SO 202 0 min 0 W/m 8,0 C 10,6 C 11,9 km/h (2 Bft)
01/12/2011 03:25 10,7 C 84 % 1019,7 hPa 0,0 mm 7,9 km/h (2 Bft) SO 225 0 min 0 W/m 8,1 C 10,7 C 14,8 km/h (3 Bft)
01/12/2011 03:30 10,6 C 84 % 1019,7 hPa 0,0 mm 10,8 km/h (2 Bft) S-SE 157 0 min 0 W/m 8,0 C 10,6 C 18,4 km/h (3 Bft)
01/12/2011 03:35 10,6 C 84 % 1019,8 hPa 0,0 mm 9,4 km/h (2 Bft) SO 225 0 min 0 W/m 8,0 C 10,6 C 9,4 km/h (2 Bft)
01/12/2011 03:40 10,6 C 84 % 1019,8 hPa 0,0 mm 9,0 km/h (2 Bft) S-SO 202 0 min 0 W/m 8,0 C 10,6 C 10,4 km/h (2 Bft)
01/12/2011 03:45 10,6 C 84 % 1019,7 hPa 0,0 mm 11,9 km/h (2 Bft) O-SO 247 0 min 0 W/m 8,0 C 10,6 C 19,1 km/h (3 Bft)
01/12/2011 03:50 10,6 C 84 % 1019,7 hPa 0,0 mm 13,3 km/h (3 Bft) O-SO 247 0 min 0 W/m 8,0 C 10,6 C 19,1 km/h (3 Bft)
01/12/2011 03:55 10,7 C 84 % 1019,7 hPa 0,0 mm 9,7 km/h (2 Bft) SO 225 0 min 0 W/m 8,1 C 10,7 C 9,7 km/h (2 Bft)
01/12/2011 04:00 10,6 C 84 % 1019,7 hPa 0,0 mm 7,9 km/h (2 Bft) S-SO 202 0 min 0 W/m 8,0 C 10,6 C 13,0 km/h (3 Bft)
01/12/2011 04:05 10,6 C 84 % 1019,8 hPa 0,0 mm 9,4 km/h (2 Bft) S-SO 202 0 min 0 W/m 8,0 C 10,6 C 9,4 km/h (2 Bft)
01/12/2011 04:10 10,6 C 84 % 1019,8 hPa 0,0 mm 5,4 km/h (2 Bft) SO 225 0 min 0 W/m 8,0 C 10,6 C 7,6 km/h (2 Bft)
01/12/2011 04:15 10,6 C 84 % 1019,9 hPa 0,0 mm 5,0 km/h (1 Bft) O-SO 247 0 min 0 W/m 8,0 C 10,6 C 7,9 km/h (2 Bft)
01/12/2011 04:20 10,6 C 84 % 1019,8 hPa 0,0 mm 4,7 km/h (1 Bft) SO 225 0 min 0 W/m 8,0 C 10,6 C 8,3 km/h (2 Bft)
01/12/2011 04:25 10,6 C 84 % 1019,8 hPa 0,0 mm 11,9 km/h (2 Bft) O-SO 247 0 min 0 W/m 8,0 C 10,6 C 16,6 km/h (3 Bft)
01/12/2011 04:30 10,6 C 84 % 1019,7 hPa 0,0 mm 9,7 km/h (2 Bft) SO 225 0 min 0 W/m 8,0 C 10,6 C 16,2 km/h (3 Bft)
01/12/2011 04:35 10,6 C 84 % 1019,9 hPa 0,0 mm 5,8 km/h (2 Bft) SO 225 0 min 0 W/m 8,0 C 10,6 C 8,6 km/h (2 Bft)
01/12/2011 04:40 10,5 C 84 % 1020,0 hPa 0,0 mm 9,4 km/h (2 Bft) S-SO 202 0 min 0 W/m 7,9 C 10,5 C 9,7 km/h (2 Bft)
01/12/2011 04:45 10,4 C 84 % 1020,1 hPa 0,0 mm 9,4 km/h (2 Bft) SO 225 0 min 0 W/m 7,8 C 10,4 C 13,3 km/h (3 Bft)
01/12/2011 04:50 10,3 C 85 % 1020,1 hPa 0,0 mm 10,1 km/h (2 Bft) SO 225 0 min 0 W/m 7,9 C 10,3 C 17,3 km/h (3 Bft)
01/12/2011 04:55 10,3 C 85 % 1020,1 hPa 0,0 mm 7,9 km/h (2 Bft) S-SO 202 0 min 0 W/m 7,9 C 10,3 C 8,3 km/h (2 Bft)
01/12/2011 05:00 10,2 C 85 % 1019,9 hPa 0,0 mm 10,8 km/h (2 Bft) SO 225 0 min 0 W/m 7,8 C 10,2 C 13,0 km/h (3 Bft)
01/12/2011 05:05 10,1 C 85 % 1019,7 hPa 0,0 mm 8,6 km/h (2 Bft) S-SO 202 0 min 0 W/m 7,7 C 10,1 C 11,2 km/h (2 Bft)
01/12/2011 05:10 10,0 C 85 % 1019,8 hPa 0,0 mm 6,1 km/h (2 Bft) SO 225 0 min 0 W/m 7,6 C 9,4 C 8,3 km/h (2 Bft)
01/12/2011 05:15 9,9 C 85 % 1019,9 hPa 0,0 mm 10,4 km/h (2 Bft) S 180 0 min 0 W/m 7,5 C 8,4 C 14,0 km/h (3 Bft)
01/12/2011 05:20 9,9 C 86 % 1019,6 hPa 0,0 mm 8,6 km/h (2 Bft) S-SO 202 0 min 0 W/m 7,7 C 8,8 C 8,6 km/h (2 Bft)
01/12/2011 05:25 9,8 C 86 % 1019,6 hPa 0,0 mm 9,0 km/h (2 Bft) S-SO 202 0 min 0 W/m 7,6 C 8,6 C 13,7 km/h (3 Bft)
01/12/2011 05:30 9,8 C 86 % 1019,6 hPa 0,0 mm 9,4 km/h (2 Bft) S 180 0 min 0 W/m 7,6 C 8,5 C 14,0 km/h (3 Bft)
01/12/2011 05:35 9,8 C 86 % 1019,7 hPa 0,0 mm 9,0 km/h (2 Bft) S-SO 202 0 min 0 W/m 7,6 C 8,6 C 15,1 km/h (3 Bft)
01/12/2011 05:40 9,8 C 85 % 1019,6 hPa 0,0 mm 7,9 km/h (2 Bft) S 180 0 min 0 W/m 7,4 C 8,8 C 7,9 km/h (2 Bft)
01/12/2011 05:45 9,8 C 85 % 1019,6 hPa 0,0 mm 13,7 km/h (3 Bft) S-SO 202 0 min 0 W/m 7,4 C 7,8 C 13,7 km/h (3 Bft)
01/12/2011 05:50 9,8 C 85 % 1019,6 hPa 0,0 mm 15,5 km/h (3 Bft) SO 225 0 min 0 W/m 7,4 C 7,6 C 21,6 km/h (4 Bft)
01/12/2011 05:55 9,9 C 84 % 1019,6 hPa 0,0 mm 13,3 km/h (3 Bft) S-SO 202 0 min 0 W/m 7,3 C 8,0 C 16,9 km/h (3 Bft)
01/12/2011 06:00 9,9 C 84 % 1019,5 hPa 0,0 mm 11,5 km/h (2 Bft) SO 225 0 min 0 W/m 7,3 C 8,3 C 22,0 km/h (4 Bft)
01/12/2011 06:05 10,0 C 84 % 1019,5 hPa 0,0 mm 8,6 km/h (2 Bft) S 180 0 min 0 W/m 7,4 C 8,9 C 13,0 km/h (3 Bft)
01/12/2011 06:10 9,9 C 84 % 1019,5 hPa 0,0 mm 11,2 km/h (2 Bft) SE 135 0 min 0 W/m 7,3 C 8,3 C 16,6 km/h (3 Bft)
01/12/2011 06:15 9,9 C 84 % 1019,4 hPa 0,0 mm 10,4 km/h (2 Bft) S 180 0 min 0 W/m 7,3 C 8,4 C 14,8 km/h (3 Bft)
01/12/2011 06:20 9,9 C 84 % 1019,3 hPa 0,0 mm 10,1 km/h (2 Bft) S-SO 202 0 min 0 W/m 7,3 C 8,5 C 15,5 km/h (3 Bft)
01/12/2011 06:25 9,9 C 84 % 1019,2 hPa 0,0 mm 14,4 km/h (3 Bft) S 180 0 min 0 W/m 7,3 C 7,9 C 21,2 km/h (4 Bft)
01/12/2011 06:30 9,9 C 84 % 1019,4 hPa 0,0 mm 10,4 km/h (2 Bft) S-SO 202 0 min 0 W/m 7,3 C 8,4 C 16,9 km/h (3 Bft)
01/12/2011 06:35 9,9 C 84 % 1019,5 hPa 0,0 mm 9,0 km/h (2 Bft) SO 225 0 min 0 W/m 7,3 C 8,7 C 10,1 km/h (2 Bft)
01/12/2011 06:40 9,9 C 84 % 1019,6 hPa 0,0 mm 11,5 km/h (2 Bft) S 180 0 min 0 W/m 7,3 C 8,3 C 11,5 km/h (2 Bft)
01/12/2011 06:45 9,8 C 84 % 1019,6 hPa 0,0 mm 11,9 km/h (2 Bft) S-SO 202 0 min 0 W/m 7,2 C 8,1 C 15,1 km/h (3 Bft)
01/12/2011 06:50 9,8 C 84 % 1019,5 hPa 0,0 mm 17,3 km/h (3 Bft) S 180 0 min 0 W/m 7,2 C 7,4 C 24,5 km/h (4 Bft)
01/12/2011 06:55 9,8 C 84 % 1019,5 hPa 0,0 mm 10,4 km/h (2 Bft) S-SO 202 0 min 0 W/m 7,2 C 8,3 C 16,2 km/h (3 Bft)
01/12/2011 07:00 9,8 C 84 % 1019,4 hPa 0,0 mm 8,6 km/h (2 Bft) SO 225 0 min 0 W/m 7,2 C 8,7 C 8,6 km/h (2 Bft)
01/12/2011 07:05 9,8 C 84 % 1019,5 hPa 0,0 mm 11,2 km/h (2 Bft) S-SO 202 0 min 0 W/m 7,2 C 8,2 C 12,6 km/h (3 Bft)
01/12/2011 07:10 9,8 C 84 % 1019,5 hPa 0,0 mm 11,5 km/h (2 Bft) S 180 0 min 0 W/m 7,2 C 8,1 C 18,7 km/h (3 Bft)
01/12/2011 07:15 9,8 C 84 % 1019,6 hPa 0,0 mm 7,9 km/h (2 Bft) SO 225 0 min 0 W/m 7,2 C 8,8 C 11,2 km/h (2 Bft)
01/12/2011 07:20 9,8 C 84 % 1019,6 hPa 0,0 mm 7,6 km/h (2 Bft) S-SO 202 0 min 0 W/m 7,2 C 8,9 C 12,6 km/h (3 Bft)
01/12/2011 07:25 9,7 C 84 % 1019,7 hPa 0,0 mm 7,2 km/h (2 Bft) SO 225 0 min 0 W/m 7,1 C 8,8 C 7,2 km/h (2 Bft)
01/12/2011 07:30 9,7 C 84 % 1019,7 hPa 0,0 mm 6,8 km/h (2 Bft) S-SE 157 0 min 0 W/m 7,1 C 8,9 C 11,9 km/h (2 Bft)
01/12/2011 07:35 9,7 C 84 % 1019,7 hPa 0,0 mm 8,6 km/h (2 Bft) S-SO 202 0 min 0 W/m 7,1 C 8,5 C 15,5 km/h (3 Bft)
01/12/2011 07:40 9,7 C 84 % 1019,8 hPa 0,0 mm 6,5 km/h (2 Bft) SO 225 0 min 0 W/m 7,1 C 9,0 C 9,7 km/h (2 Bft)
01/12/2011 07:45 9,7 C 84 % 1019,7 hPa 0,0 mm 9,7 km/h (2 Bft) S-SO 202 0 min 0 W/m 7,1 C 8,3 C 10,4 km/h (2 Bft)
01/12/2011 07:50 9,7 C 84 % 1019,8 hPa 0,0 mm 10,8 km/h (2 Bft) SO 225 0 min 0 W/m 7,1 C 8,1 C 14,4 km/h (3 Bft)
01/12/2011 07:55 9,7 C 84 % 1019,8 hPa 0,0 mm 5,8 km/h (2 Bft) S 180 0 min 0 W/m 7,1 C 9,2 C 7,2 km/h (2 Bft)
01/12/2011 08:00 9,6 C 84 % 1019,9 hPa 0,0 mm 7,2 km/h (2 Bft) SO 225 0 min 0 W/m 7,0 C 8,7 C 7,2 km/h (2 Bft)
01/12/2011 08:05 9,6 C 84 % 1020,0 hPa 0,0 mm 7,9 km/h (2 Bft) S 180 0 min 0 W/m 7,0 C 8,6 C 10,8 km/h (2 Bft)
01/12/2011 08:10 9,6 C 85 % 1020,0 hPa 0,0 mm 8,6 km/h (2 Bft) S 180 0 min 0 W/m 7,2 C 8,4 C 13,0 km/h (3 Bft)
01/12/2011 08:15 9,6 C 85 % 1019,9 hPa 0,0 mm 7,6 km/h (2 Bft) S-SO 202 0 min 0 W/m 7,2 C 8,6 C 7,6 km/h (2 Bft)
01/12/2011 08:20 9,5 C 85 % 1019,9 hPa 0,0 mm 11,2 km/h (2 Bft) S-SO 202 0 min 0 W/m 7,1 C 7,8 C 13,0 km/h (3 Bft)
01/12/2011 08:25 9,6 C 85 % 1019,9 hPa 0,0 mm 7,6 km/h (2 Bft) S-SO 202 0 min 0 W/m 7,2 C 8,6 C 13,3 km/h (3 Bft)
01/12/2011 08:30 9,6 C 85 % 1019,9 hPa 0,0 mm 10,1 km/h (2 Bft) S-SO 202 0 min 0 W/m 7,2 C 8,1 C 11,9 km/h (2 Bft)
01/12/2011 08:35 9,6 C 85 % 1019,9 hPa 0,0 mm 7,9 km/h (2 Bft) S-SO 202 0 min 0 W/m 7,2 C 8,6 C 9,4 km/h (2 Bft)
01/12/2011 08:40 9,6 C 85 % 1019,9 hPa 0,0 mm 11,9 km/h (2 Bft) SO 225 0 min 0 W/m 7,2 C 7,8 C 15,1 km/h (3 Bft)
01/12/2011 08:45 9,6 C 84 % 1019,9 hPa 0,0 mm 7,9 km/h (2 Bft) SO 225 0 min 0 W/m 7,0 C 8,6 C 9,4 km/h (2 Bft)
01/12/2011 08:50 9,7 C 84 % 1019,9 hPa 0,0 mm 4,7 km/h (1 Bft) SO 225 0 min 0 W/m 7,1 C 9,5 C 8,6 km/h (2 Bft)
01/12/2011 08:55 9,7 C 84 % 1019,9 hPa 0,0 mm 9,4 km/h (2 Bft) S-SO 202 0 min 0 W/m 7,1 C 8,4 C 12,2 km/h (2 Bft)
01/12/2011 09:00 9,8 C 84 % 1020,1 hPa 0,0 mm 11,5 km/h (2 Bft) S-SO 202 0 min 0 W/m 7,2 C 8,1 C 14,8 km/h (3 Bft)
01/12/2011 09:05 9,9 C 84 % 1020,1 hPa 0,0 mm 7,2 km/h (2 Bft) S-SO 202 0 min 0 W/m 7,3 C 9,1 C 10,8 km/h (2 Bft)
01/12/2011 09:10 10,1 C 84 % 1020,1 hPa 0,0 mm 6,5 km/h (2 Bft) S 180 0 min 0 W/m 7,5 C 10,1 C 6,5 km/h (2 Bft)
01/12/2011 09:15 10,1 C 84 % 1020,0 hPa 0,0 mm 9,7 km/h (2 Bft) S-SE 157 0 min 0 W/m 7,5 C 10,1 C 14,0 km/h (3 Bft)
01/12/2011 09:20 10,1 C 84 % 1020,0 hPa 0,0 mm 14,0 km/h (3 Bft) S-SE 157 0 min 0 W/m 7,5 C 10,1 C 17,6 km/h (3 Bft)
01/12/2011 09:25 10,1 C 83 % 1020,0 hPa 0,0 mm 6,1 km/h (2 Bft) S-SO 202 0 min 0 W/m 7,3 C 10,1 C 9,7 km/h (2 Bft)
01/12/2011 09:30 10,1 C 83 % 1020,1 hPa 0,0 mm 10,8 km/h (2 Bft) S-SE 157 0 min 0 W/m 7,3 C 10,1 C 19,1 km/h (3 Bft)
01/12/2011 09:35 10,2 C 83 % 1020,1 hPa 0,0 mm 10,8 km/h (2 Bft) S-SO 202 0 min 0 W/m 7,4 C 10,2 C 10,8 km/h (2 Bft)
01/12/2011 09:40 10,2 C 83 % 1020,1 hPa 0,0 mm 9,0 km/h (2 Bft) S-SO 202 0 min 0 W/m 7,4 C 10,2 C 9,7 km/h (2 Bft)
01/12/2011 09:45 10,3 C 83 % 1020,1 hPa 0,0 mm 13,7 km/h (3 Bft) S-SO 202 0 min 0 W/m 7,5 C 10,3 C 22,0 km/h (4 Bft)
01/12/2011 09:50 10,4 C 83 % 1020,2 hPa 0,0 mm 8,6 km/h (2 Bft) S-SO 202 0 min 0 W/m 7,6 C 10,4 C 18,7 km/h (3 Bft)
01/12/2011 09:55 10,5 C 82 % 1020,0 hPa 0,0 mm 14,8 km/h (3 Bft) S 180 0 min 0 W/m 7,6 C 10,5 C 20,9 km/h (4 Bft)
01/12/2011 10:00 10,6 C 82 % 1020,0 hPa 0,0 mm 11,5 km/h (2 Bft) S 180 0 min 0 W/m 7,7 C 10,6 C 14,0 km/h (3 Bft)
01/12/2011 10:05 10,9 C 82 % 1020,0 hPa 0,0 mm 10,8 km/h (2 Bft) SO 225 0 min 0 W/m 7,9 C 10,9 C 14,8 km/h (3 Bft)
01/12/2011 10:10 11,1 C 81 % 1020,1 hPa 0,0 mm 5,0 km/h (1 Bft) O-SO 247 0 min 0 W/m 8,0 C 11,1 C 6,8 km/h (2 Bft)
01/12/2011 10:15 11,3 C 80 % 1020,0 hPa 0,0 mm 10,4 km/h (2 Bft) SO 225 0 min 0 W/m 8,0 C 11,3 C 10,8 km/h (2 Bft)
01/12/2011 10:20 11,4 C 80 % 1020,0 hPa 0,0 mm 7,9 km/h (2 Bft) S-SO 202 0 min 0 W/m 8,1 C 11,4 C 9,7 km/h (2 Bft)
01/12/2011 10:25 11,4 C 80 % 1020,1 hPa 0,0 mm 16,2 km/h (3 Bft) SO 225 0 min 0 W/m 8,1 C 11,4 C 24,5 km/h (4 Bft)
01/12/2011 10:30 11,3 C 80 % 1020,0 hPa 0,0 mm 12,2 km/h (2 Bft) S-SO 202 0 min 0 W/m 8,0 C 11,3 C 16,9 km/h (3 Bft)
01/12/2011 10:35 11,4 C 80 % 1020,0 hPa 0,0 mm 4,7 km/h (1 Bft) S-SO 202 0 min 0 W/m 8,1 C 11,4 C 13,3 km/h (3 Bft)
01/12/2011 10:40 11,4 C 80 % 1020,1 hPa 0,0 mm 8,6 km/h (2 Bft) S-SO 202 0 min 0 W/m 8,1 C 11,4 C 10,8 km/h (2 Bft)
01/12/2011 10:45 11,4 C 80 % 1019,9 hPa 0,0 mm 11,5 km/h (2 Bft) S-SO 202 0 min 0 W/m 8,1 C 11,4 C 15,5 km/h (3 Bft)
01/12/2011 10:50 11,4 C 80 % 1020,0 hPa 0,0 mm 8,3 km/h (2 Bft) S-SO 202 0 min 0 W/m 8,1 C 11,4 C 10,1 km/h (2 Bft)
01/12/2011 10:55 11,4 C 80 % 1020,0 hPa 0,0 mm 10,4 km/h (2 Bft) SO 225 0 min 0 W/m 8,1 C 11,4 C 15,5 km/h (3 Bft)
01/12/2011 11:00 11,4 C 80 % 1020,1 hPa 0,0 mm 5,0 km/h (1 Bft) SO 225 0 min 0 W/m 8,1 C 11,4 C 11,2 km/h (2 Bft)
01/12/2011 11:05 11,7 C 80 % 1020,0 hPa 0,0 mm 11,2 km/h (2 Bft) S-SO 202 0 min 0 W/m 8,4 C 11,7 C 16,6 km/h (3 Bft)
01/12/2011 11:10 11,8 C 80 % 1019,9 hPa 0,0 mm 10,4 km/h (2 Bft) SO 225 0 min 0 W/m 8,5 C 11,8 C 17,6 km/h (3 Bft)
01/12/2011 11:15 11,8 C 79 % 1019,8 hPa 0,0 mm 7,6 km/h (2 Bft) SE 135 0 min 0 W/m 8,3 C 11,8 C 14,8 km/h (3 Bft)
01/12/2011 11:20 11,8 C 79 % 1019,8 hPa 0,0 mm 9,7 km/h (2 Bft) S 180 0 min 0 W/m 8,3 C 11,8 C 9,7 km/h (2 Bft)
01/12/2011 11:25 11,8 C 79 % 1019,6 hPa 0,0 mm 9,4 km/h (2 Bft) S 180 0 min 0 W/m 8,3 C 11,8 C 9,4 km/h (2 Bft)
01/12/2011 11:30 11,8 C 79 % 1019,5 hPa 0,0 mm 9,0 km/h (2 Bft) S-SO 202 0 min 0 W/m 8,3 C 11,8 C 12,6 km/h (3 Bft)
01/12/2011 11:35 11,8 C 78 % 1019,3 hPa 0,0 mm 11,5 km/h (2 Bft) S-SO 202 0 min 0 W/m 8,1 C 11,8 C 16,6 km/h (3 Bft)
01/12/2011 11:40 11,8 C 78 % 1019,3 hPa 0,0 mm 7,9 km/h (2 Bft) S-SE 157 0 min 0 W/m 8,1 C 11,8 C 8,3 km/h (2 Bft)
01/12/2011 11:45 11,8 C 78 % 1019,3 hPa 0,0 mm 9,7 km/h (2 Bft) S-SO 202 0 min 0 W/m 8,1 C 11,8 C 19,4 km/h (3 Bft)
01/12/2011 11:50 12,0 C 78 % 1019,3 hPa 0,0 mm 6,1 km/h (2 Bft) S-SO 202 0 min 0 W/m 8,3 C 12,0 C 11,5 km/h (2 Bft)
01/12/2011 11:55 12,3 C 76 % 1019,2 hPa 0,0 mm 9,0 km/h (2 Bft) S 180 0 min 0 W/m 8,2 C 12,3 C 12,2 km/h (2 Bft)
01/12/2011 12:00 12,6 C 76 % 1019,2 hPa 0,0 mm 13,7 km/h (3 Bft) S-SO 202 0 min 0 W/m 8,5 C 12,6 C 16,9 km/h (3 Bft)
01/12/2011 12:05 13,2 C 74 % 1019,2 hPa 0,0 mm 17,6 km/h (3 Bft) S-SO 202 0 min 0 W/m 8,7 C 13,2 C 19,8 km/h (3 Bft)
01/12/2011 12:10 13,6 C 72 % 1019,2 hPa 0,0 mm 15,1 km/h (3 Bft) S-SO 202 0 min 0 W/m 8,6 C 13,6 C 25,9 km/h (4 Bft)
01/12/2011 12:15 13,6 C 72 % 1019,0 hPa 0,0 mm 6,8 km/h (2 Bft) S 180 0 min 0 W/m 8,6 C 13,6 C 11,9 km/h (2 Bft)
01/12/2011 12:20 13,6 C 71 % 1019,0 hPa 0,0 mm 8,3 km/h (2 Bft) S-SO 202 0 min 0 W/m 8,4 C 13,6 C 18,0 km/h (3 Bft)
01/12/2011 12:25 13,3 C 71 % 1019,0 hPa 0,0 mm 9,0 km/h (2 Bft) S-SO 202 0 min 0 W/m 8,2 C 13,3 C 12,2 km/h (2 Bft)
01/12/2011 12:30 13,3 C 72 % 1018,9 hPa 0,0 mm 10,8 km/h (2 Bft) S 180 0 min 0 W/m 8,4 C 13,3 C 13,3 km/h (3 Bft)
01/12/2011 12:35 13,4 C 71 % 1018,8 hPa 0,0 mm 13,3 km/h (3 Bft) S-SO 202 0 min 0 W/m 8,3 C 13,4 C 19,1 km/h (3 Bft)
01/12/2011 12:40 13,6 C 69 % 1018,7 hPa 0,0 mm 14,4 km/h (3 Bft) S 180 0 min 0 W/m 8,0 C 13,6 C 20,9 km/h (4 Bft)
01/12/2011 12:45 13,8 C 69 % 1018,6 hPa 0,0 mm 13,3 km/h (3 Bft) SO 225 0 min 0 W/m 8,2 C 13,8 C 20,2 km/h (4 Bft)
01/12/2011 12:50 14,1 C 68 % 1018,6 hPa 0,0 mm 15,1 km/h (3 Bft) S 180 0 min 0 W/m 8,3 C 14,1 C 22,0 km/h (4 Bft)
01/12/2011 12:55 14,2 C 67 % 1018,5 hPa 0,0 mm 9,0 km/h (2 Bft) SO 225 0 min 0 W/m 8,2 C 14,2 C 9,4 km/h (2 Bft)
01/12/2011 13:00 14,2 C 66 % 1018,4 hPa 0,0 mm 18,7 km/h (3 Bft) S-SO 202 0 min 0 W/m 7,9 C 14,2 C 28,8 km/h (5 Bft)
01/12/2011 13:05 14,2 C 67 % 1018,3 hPa 0,0 mm 12,2 km/h (2 Bft) S 180 0 min 0 W/m 8,2 C 14,2 C 15,1 km/h (3 Bft)
01/12/2011 13:10 14,6 C 68 % 1018,2 hPa 0,0 mm 10,1 km/h (2 Bft) S-SO 202 0 min 0 W/m 8,8 C 14,6 C 16,9 km/h (3 Bft)
01/12/2011 13:15 14,9 C 64 % 1018,3 hPa 0,0 mm 15,1 km/h (3 Bft) S-SO 202 0 min 0 W/m 8,2 C 14,9 C 19,8 km/h (3 Bft)
01/12/2011 13:20 14,9 C 64 % 1018,2 hPa 0,0 mm 14,0 km/h (3 Bft) S-SO 202 0 min 0 W/m 8,2 C 14,9 C 24,5 km/h (4 Bft)
01/12/2011 13:25 14,9 C 64 % 1018,2 hPa 0,0 mm 13,0 km/h (3 Bft) S-SO 202 0 min 0 W/m 8,2 C 14,9 C 16,6 km/h (3 Bft)
01/12/2011 13:30 14,8 C 64 % 1017,8 hPa 0,0 mm 12,6 km/h (3 Bft) S 180 0 min 0 W/m 8,1 C 14,8 C 13,3 km/h (3 Bft)
01/12/2011 13:35 14,9 C 63 % 1017,7 hPa 0,0 mm 12,6 km/h (3 Bft) S 180 0 min 0 W/m 7,9 C 14,9 C 23,0 km/h (4 Bft)
01/12/2011 13:40 15,2 C 63 % 1017,8 hPa 0,0 mm 13,3 km/h (3 Bft) S-SO 202 0 min 0 W/m 8,2 C 15,2 C 25,9 km/h (4 Bft)
01/12/2011 13:45 15,3 C 61 % 1017,8 hPa 0,0 mm 11,9 km/h (2 Bft) S-SO 202 0 min 0 W/m 7,8 C 15,3 C 18,0 km/h (3 Bft)
01/12/2011 13:50 15,2 C 62 % 1017,8 hPa 0,0 mm 15,8 km/h (3 Bft) S-SO 202 0 min 0 W/m 8,0 C 15,2 C 15,8 km/h (3 Bft)
01/12/2011 13:55 15,2 C 61 % 1017,6 hPa 0,0 mm 10,8 km/h (2 Bft) S-SO 202 0 min 0 W/m 7,7 C 15,2 C 17,6 km/h (3 Bft)
01/12/2011 14:00 15,3 C 61 % 1017,6 hPa 0,0 mm 11,2 km/h (2 Bft) S-SO 202 0 min 0 W/m 7,8 C 15,3 C 13,0 km/h (3 Bft)
01/12/2011 14:05 15,5 C 60 % 1017,6 hPa 0,0 mm 10,1 km/h (2 Bft) S 180 0 min 0 W/m 7,8 C 15,5 C 18,0 km/h (3 Bft)
01/12/2011 14:10 15,5 C 61 % 1017,4 hPa 0,0 mm 7,2 km/h (2 Bft) S 180 0 min 0 W/m 8,0 C 15,5 C 7,6 km/h (2 Bft)
01/12/2011 14:15 15,4 C 61 % 1017,3 hPa 0,0 mm 9,4 km/h (2 Bft) S-SO 202 0 min 0 W/m 7,9 C 15,4 C 11,9 km/h (2 Bft)
01/12/2011 14:20 15,3 C 62 % 1017,2 hPa 0,0 mm 8,3 km/h (2 Bft) S-SO 202 0 min 0 W/m 8,1 C 15,3 C 12,6 km/h (3 Bft)
01/12/2011 14:25 15,1 C 62 % 1017,0 hPa 0,0 mm 7,2 km/h (2 Bft) S-SO 202 0 min 0 W/m 7,9 C 15,1 C 13,3 km/h (3 Bft)
01/12/2011 14:30 14,9 C 63 % 1017,0 hPa 0,0 mm 9,7 km/h (2 Bft) O-SO 247 0 min 0 W/m 7,9 C 14,9 C 14,0 km/h (3 Bft)
01/12/2011 14:35 14,8 C 62 % 1016,7 hPa 0,0 mm 13,3 km/h (3 Bft) S-SO 202 0 min 0 W/m 7,6 C 14,8 C 15,5 km/h (3 Bft)
01/12/2011 14:40 14,6 C 63 % 1016,6 hPa 0,0 mm 9,7 km/h (2 Bft) S 180 0 min 0 W/m 7,6 C 14,6 C 11,2 km/h (2 Bft)
01/12/2011 14:45 14,6 C 63 % 1016,4 hPa 0,0 mm 8,3 km/h (2 Bft) SO 225 0 min 0 W/m 7,6 C 14,6 C 9,4 km/h (2 Bft)
01/12/2011 14:50 14,8 C 64 % 1016,3 hPa 0,0 mm 8,3 km/h (2 Bft) SO 225 0 min 0 W/m 8,1 C 14,8 C 14,4 km/h (3 Bft)
01/12/2011 14:55 14,8 C 64 % 1016,2 hPa 0,0 mm 4,7 km/h (1 Bft) SO 225 0 min 0 W/m 8,1 C 14,8 C 10,8 km/h (2 Bft)
01/12/2011 15:00 14,9 C 63 % 1016,1 hPa 0,0 mm 17,3 km/h (3 Bft) S-SO 202 0 min 0 W/m 7,9 C 14,9 C 23,8 km/h (4 Bft)
01/12/2011 15:05 14,9 C 63 % 1016,0 hPa 0,0 mm 13,3 km/h (3 Bft) S-SE 157 0 min 0 W/m 7,9 C 14,9 C 18,4 km/h (3 Bft)
01/12/2011 15:10 14,8 C 63 % 1015,9 hPa 0,0 mm 11,2 km/h (2 Bft) E-SE 112 0 min 0 W/m 7,8 C 14,8 C 18,4 km/h (3 Bft)
01/12/2011 15:15 14,8 C 62 % 1015,8 hPa 0,0 mm 13,7 km/h (3 Bft) SO 225 0 min 0 W/m 7,6 C 14,8 C 22,3 km/h (4 Bft)
01/12/2011 15:20 14,9 C 62 % 1015,8 hPa 0,0 mm 14,8 km/h (3 Bft) SO 225 0 min 0 W/m 7,7 C 14,9 C 14,8 km/h (3 Bft)
01/12/2011 15:25 14,9 C 62 % 1015,7 hPa 0,0 mm 8,6 km/h (2 Bft) S 180 0 min 0 W/m 7,7 C 14,9 C 13,0 km/h (3 Bft)
01/12/2011 15:30 14,8 C 62 % 1015,7 hPa 0,0 mm 5,8 km/h (2 Bft) SO 225 0 min 0 W/m 7,6 C 14,8 C 7,9 km/h (2 Bft)
01/12/2011 15:35 14,7 C 63 % 1015,6 hPa 0,0 mm 10,1 km/h (2 Bft) S 180 0 min 0 W/m 7,7 C 14,7 C 15,5 km/h (3 Bft)
01/12/2011 15:40 14,6 C 63 % 1015,5 hPa 0,0 mm 7,2 km/h (2 Bft) O-SO 247 0 min 0 W/m 7,6 C 14,6 C 12,6 km/h (3 Bft)
01/12/2011 15:45 14,6 C 63 % 1015,4 hPa 0,0 mm 9,4 km/h (2 Bft) SO 225 0 min 0 W/m 7,6 C 14,6 C 18,0 km/h (3 Bft)
01/12/2011 15:50 14,5 C 63 % 1015,3 hPa 0,0 mm 9,7 km/h (2 Bft) S-SO 202 0 min 0 W/m 7,5 C 14,5 C 9,7 km/h (2 Bft)
01/12/2011 15:55 14,4 C 63 % 1015,3 hPa 0,0 mm 11,2 km/h (2 Bft) S 180 0 min 0 W/m 7,4 C 14,4 C 14,4 km/h (3 Bft)
01/12/2011 16:00 14,4 C 64 % 1015,3 hPa 0,0 mm 4,0 km/h (1 Bft) S 180 0 min 0 W/m 7,7 C 14,4 C 8,3 km/h (2 Bft)
01/12/2011 16:05 14,3 C 63 % 1015,3 hPa 0,0 mm 9,4 km/h (2 Bft) S 180 0 min 0 W/m 7,4 C 14,3 C 12,6 km/h (3 Bft)
01/12/2011 16:10 14,3 C 64 % 1015,1 hPa 0,0 mm 9,4 km/h (2 Bft) S-SO 202 0 min 0 W/m 7,6 C 14,3 C 13,7 km/h (3 Bft)
01/12/2011 16:15 14,2 C 64 % 1015,0 hPa 0,0 mm 7,9 km/h (2 Bft) S-SO 202 0 min 0 W/m 7,5 C 14,2 C 11,2 km/h (2 Bft)
01/12/2011 16:20 14,1 C 64 % 1015,1 hPa 0,0 mm 7,6 km/h (2 Bft) S-SO 202 0 min 0 W/m 7,4 C 14,1 C 9,7 km/h (2 Bft)
01/12/2011 16:25 13,9 C 64 % 1015,0 hPa 0,0 mm 7,9 km/h (2 Bft) S 180 0 min 0 W/m 7,2 C 13,9 C 13,0 km/h (3 Bft)
01/12/2011 16:30 13,9 C 64 % 1014,9 hPa 0,0 mm 9,4 km/h (2 Bft) S-SO 202 0 min 0 W/m 7,2 C 13,9 C 12,6 km/h (3 Bft)
01/12/2011 16:35 13,8 C 65 % 1014,8 hPa 0,0 mm 3,6 km/h (1 Bft) S 180 0 min 0 W/m 7,3 C 13,8 C 6,1 km/h (2 Bft)
01/12/2011 16:40 13,7 C 64 % 1014,8 hPa 0,0 mm 14,4 km/h (3 Bft) S-SO 202 0 min 0 W/m 7,0 C 13,7 C 20,2 km/h (4 Bft)
01/12/2011 16:45 13,5 C 65 % 1014,7 hPa 0,0 mm 9,4 km/h (2 Bft) SO 225 0 min 0 W/m 7,1 C 13,5 C 15,8 km/h (3 Bft)
01/12/2011 16:50 13,4 C 65 % 1014,7 hPa 0,0 mm 8,6 km/h (2 Bft) S-SO 202 0 min 0 W/m 7,0 C 13,4 C 16,6 km/h (3 Bft)
01/12/2011 16:55 13,3 C 66 % 1014,7 hPa 0,0 mm 5,0 km/h (1 Bft) S-SO 202 0 min 0 W/m 7,1 C 13,3 C 8,3 km/h (2 Bft)
01/12/2011 17:00 13,1 C 67 % 1014,6 hPa 0,0 mm 7,6 km/h (2 Bft) S-SE 157 0 min 0 W/m 7,1 C 13,1 C 10,8 km/h (2 Bft)
01/12/2011 17:05 12,9 C 68 % 1014,4 hPa 0,0 mm 3,2 km/h (1 Bft) S 180 0 min 0 W/m 7,1 C 12,9 C 3,2 km/h (1 Bft)
01/12/2011 17:10 12,8 C 68 % 1014,4 hPa 0,0 mm 4,7 km/h (1 Bft) S 180 0 min 0 W/m 7,0 C 12,8 C 8,3 km/h (2 Bft)
01/12/2011 17:15 12,6 C 69 % 1014,3 hPa 0,0 mm 7,6 km/h (2 Bft) S-SO 202 0 min 0 W/m 7,1 C 12,6 C 9,0 km/h (2 Bft)
01/12/2011 17:20 12,5 C 70 % 1014,3 hPa 0,0 mm 6,1 km/h (2 Bft) S-SO 202 0 min 0 W/m 7,2 C 12,5 C 10,8 km/h (2 Bft)
01/12/2011 17:25 12,4 C 70 % 1014,2 hPa 0,0 mm 8,3 km/h (2 Bft) S-SO 202 0 min 0 W/m 7,1 C 12,4 C 15,1 km/h (3 Bft)
01/12/2011 17:30 12,4 C 71 % 1014,2 hPa 0,0 mm 10,1 km/h (2 Bft) S-SO 202 0 min 0 W/m 7,3 C 12,4 C 11,9 km/h (2 Bft)
01/12/2011 17:35 12,3 C 71 % 1014,2 hPa 0,0 mm 6,8 km/h (2 Bft) S-SE 157 0 min 0 W/m 7,2 C 12,3 C 9,7 km/h (2 Bft)
01/12/2011 17:40 12,3 C 72 % 1014,0 hPa 0,0 mm 9,0 km/h (2 Bft) S 180 0 min 0 W/m 7,4 C 12,3 C 13,3 km/h (3 Bft)
01/12/2011 17:45 12,2 C 72 % 1013,9 hPa 0,0 mm 9,0 km/h (2 Bft) S-SO 202 0 min 0 W/m 7,3 C 12,2 C 11,2 km/h (2 Bft)
01/12/2011 17:50 12,1 C 72 % 1013,7 hPa 0,0 mm 8,6 km/h (2 Bft) SE 135 0 min 0 W/m 7,2 C 12,1 C 8,6 km/h (2 Bft)
01/12/2011 17:55 12,1 C 72 % 1013,6 hPa 0,0 mm 12,2 km/h (2 Bft) S-SO 202 0 min 0 W/m 7,2 C 12,1 C 20,2 km/h (4 Bft)
01/12/2011 18:00 12,1 C 72 % 1013,6 hPa 0,0 mm 14,0 km/h (3 Bft) S-SO 202 0 min 0 W/m 7,2 C 12,1 C 22,0 km/h (4 Bft)
01/12/2011 18:05 12,1 C 72 % 1013,7 hPa 0,0 mm 11,5 km/h (2 Bft) SO 225 0 min 0 W/m 7,2 C 12,1 C 18,7 km/h (3 Bft)
01/12/2011 18:10 12,1 C 73 % 1013,7 hPa 0,0 mm 7,6 km/h (2 Bft) S 180 0 min 0 W/m 7,4 C 12,1 C 14,0 km/h (3 Bft)
01/12/2011 18:15 12,1 C 73 % 1013,6 hPa 0,0 mm 9,0 km/h (2 Bft) S 180 0 min 0 W/m 7,4 C 12,1 C 13,3 km/h (3 Bft)
01/12/2011 18:20 12,1 C 73 % 1013,6 hPa 0,0 mm 8,6 km/h (2 Bft) S-SO 202 0 min 0 W/m 7,4 C 12,1 C 11,5 km/h (2 Bft)
01/12/2011 18:25 12,1 C 73 % 1013,5 hPa 0,0 mm 7,9 km/h (2 Bft) S-SE 157 0 min 0 W/m 7,4 C 12,1 C 9,4 km/h (2 Bft)
01/12/2011 18:30 12,0 C 73 % 1013,6 hPa 0,0 mm 3,6 km/h (1 Bft) SO 225 0 min 0 W/m 7,3 C 12,0 C 3,6 km/h (1 Bft)
01/12/2011 18:35 11,9 C 73 % 1013,5 hPa 0,0 mm 8,3 km/h (2 Bft) S-SO 202 0 min 0 W/m 7,2 C 11,9 C 15,8 km/h (3 Bft)
01/12/2011 18:40 11,9 C 73 % 1013,4 hPa 0,0 mm 5,4 km/h (2 Bft) SE 135 0 min 0 W/m 7,2 C 11,9 C 5,4 km/h (2 Bft)
01/12/2011 18:45 11,8 C 73 % 1013,3 hPa 0,0 mm 4,7 km/h (1 Bft) SO 225 0 min 0 W/m 7,1 C 11,8 C 4,7 km/h (1 Bft)
01/12/2011 18:50 11,8 C 74 % 1013,3 hPa 0,0 mm 7,2 km/h (2 Bft) S 180 0 min 0 W/m 7,3 C 11,8 C 12,2 km/h (2 Bft)
01/12/2011 18:55 11,7 C 74 % 1013,3 hPa 0,0 mm 7,2 km/h (2 Bft) S 180 0 min 0 W/m 7,2 C 11,7 C 9,4 km/h (2 Bft)
01/12/2011 19:00 11,7 C 74 % 1013,2 hPa 0,0 mm 9,7 km/h (2 Bft) S 180 0 min 0 W/m 7,2 C 11,7 C 15,8 km/h (3 Bft)
01/12/2011 19:05 11,6 C 75 % 1013,3 hPa 0,0 mm 5,0 km/h (1 Bft) S-SO 202 0 min 0 W/m 7,3 C 11,6 C 5,0 km/h (1 Bft)
01/12/2011 19:10 11,6 C 75 % 1013,3 hPa 0,0 mm 9,7 km/h (2 Bft) S-SE 157 0 min 0 W/m 7,3 C 11,6 C 9,7 km/h (2 Bft)
01/12/2011 19:15 11,6 C 75 % 1013,3 hPa 0,0 mm 7,2 km/h (2 Bft) S-SO 202 0 min 0 W/m 7,3 C 11,6 C 10,1 km/h (2 Bft)
01/12/2011 19:20 11,5 C 75 % 1013,3 hPa 0,0 mm 5,4 km/h (2 Bft) S-SE 157 0 min 0 W/m 7,2 C 11,5 C 8,3 km/h (2 Bft)
01/12/2011 19:25 11,5 C 75 % 1013,2 hPa 0,0 mm 11,5 km/h (2 Bft) SE 135 0 min 0 W/m 7,2 C 11,5 C 13,7 km/h (3 Bft)
01/12/2011 19:30 11,5 C 75 % 1013,3 hPa 0,0 mm 7,2 km/h (2 Bft) S-SO 202 0 min 0 W/m 7,2 C 11,5 C 7,2 km/h (2 Bft)
01/12/2011 19:35 11,5 C 75 % 1013,1 hPa 0,0 mm 6,8 km/h (2 Bft) S-SE 157 0 min 0 W/m 7,2 C 11,5 C 9,4 km/h (2 Bft)
01/12/2011 19:40 11,5 C 75 % 1013,1 hPa 0,0 mm 5,8 km/h (2 Bft) S 180 0 min 0 W/m 7,2 C 11,5 C 11,9 km/h (2 Bft)
01/12/2011 19:45 11,4 C 75 % 1012,9 hPa 0,0 mm 5,4 km/h (2 Bft) S-SO 202 0 min 0 W/m 7,1 C 11,4 C 7,6 km/h (2 Bft)
01/12/2011 19:50 11,4 C 75 % 1012,7 hPa 0,0 mm 7,2 km/h (2 Bft) S-SE 157 0 min 0 W/m 7,1 C 11,4 C 9,7 km/h (2 Bft)
01/12/2011 19:55 11,4 C 75 % 1012,7 hPa 0,0 mm 8,6 km/h (2 Bft) S-SE 157 0 min 0 W/m 7,1 C 11,4 C 12,6 km/h (3 Bft)
01/12/2011 20:00 11,4 C 75 % 1012,6 hPa 0,0 mm 7,6 km/h (2 Bft) S 180 0 min 0 W/m 7,1 C 11,4 C 14,0 km/h (3 Bft)
01/12/2011 20:05 11,3 C 76 % 1012,8 hPa 0,0 mm 7,2 km/h (2 Bft) SO 225 0 min 0 W/m 7,2 C 11,3 C 7,2 km/h (2 Bft)
01/12/2011 20:10 11,3 C 76 % 1012,8 hPa 0,0 mm 2,5 km/h (1 Bft) SO 225 0 min 0 W/m 7,2 C 11,3 C 6,8 km/h (2 Bft)
01/12/2011 20:15 11,1 C 76 % 1012,7 hPa 0,0 mm 5,8 km/h (2 Bft) S 180 0 min 0 W/m 7,0 C 11,1 C 7,9 km/h (2 Bft)
01/12/2011 20:20 11,1 C 76 % 1012,5 hPa 0,0 mm 9,0 km/h (2 Bft) S-SO 202 0 min 0 W/m 7,0 C 11,1 C 9,0 km/h (2 Bft)
01/12/2011 20:25 11,2 C 76 % 1012,6 hPa 0,0 mm 6,8 km/h (2 Bft) S 180 0 min 0 W/m 7,1 C 11,2 C 12,6 km/h (3 Bft)
01/12/2011 20:30 11,2 C 77 % 1012,6 hPa 0,0 mm 10,4 km/h (2 Bft) S 180 0 min 0 W/m 7,3 C 11,2 C 11,5 km/h (2 Bft)
01/12/2011 20:35 11,3 C 77 % 1012,6 hPa 0,0 mm 11,2 km/h (2 Bft) S-SE 157 0 min 0 W/m 7,4 C 11,3 C 13,0 km/h (3 Bft)
01/12/2011 20:40 11,3 C 78 % 1012,6 hPa 0,0 mm 13,0 km/h (3 Bft) SE 135 0 min 0 W/m 7,6 C 11,3 C 19,1 km/h (3 Bft)
01/12/2011 20:45 11,4 C 78 % 1012,5 hPa 0,0 mm 14,4 km/h (3 Bft) S-SO 202 0 min 0 W/m 7,7 C 11,4 C 21,6 km/h (4 Bft)
01/12/2011 20:50 11,6 C 78 % 1012,5 hPa 0,0 mm 14,4 km/h (3 Bft) S 180 0 min 0 W/m 7,9 C 11,6 C 25,2 km/h (4 Bft)
01/12/2011 20:55 11,8 C 78 % 1012,5 hPa 0,0 mm 9,0 km/h (2 Bft) SO 225 0 min 0 W/m 8,1 C 11,8 C 12,2 km/h (2 Bft)
01/12/2011 21:00 11,8 C 79 % 1012,7 hPa 0,0 mm 9,0 km/h (2 Bft) O-SO 247 0 min 0 W/m 8,3 C 11,8 C 15,8 km/h (3 Bft)
01/12/2011 21:05 11,9 C 79 % 1012,7 hPa 0,0 mm 8,3 km/h (2 Bft) S 180 0 min 0 W/m 8,4 C 11,9 C 12,6 km/h (3 Bft)
01/12/2011 21:10 11,9 C 79 % 1012,6 hPa 0,0 mm 14,0 km/h (3 Bft) S-SO 202 0 min 0 W/m 8,4 C 11,9 C 22,7 km/h (4 Bft)
01/12/2011 21:15 12,0 C 79 % 1012,6 hPa 0,0 mm 9,0 km/h (2 Bft) S-SO 202 0 min 0 W/m 8,5 C 12,0 C 10,4 km/h (2 Bft)
01/12/2011 21:20 12,0 C 79 % 1012,5 hPa 0,0 mm 11,9 km/h (2 Bft) S-SO 202 0 min 0 W/m 8,5 C 12,0 C 19,8 km/h (3 Bft)
01/12/2011 21:25 12,1 C 80 % 1012,4 hPa 0,0 mm 11,5 km/h (2 Bft) SO 225 0 min 0 W/m 8,8 C 12,1 C 20,9 km/h (4 Bft)
01/12/2011 21:30 12,1 C 79 % 1012,4 hPa 0,0 mm 15,8 km/h (3 Bft) S-SO 202 0 min 0 W/m 8,6 C 12,1 C 22,0 km/h (4 Bft)
01/12/2011 21:35 12,1 C 79 % 1012,4 hPa 0,0 mm 12,6 km/h (3 Bft) S-SO 202 0 min 0 W/m 8,6 C 12,1 C 19,1 km/h (3 Bft)
01/12/2011 21:40 12,1 C 78 % 1012,4 hPa 0,0 mm 13,3 km/h (3 Bft) S-SO 202 0 min 0 W/m 8,4 C 12,1 C 13,3 km/h (3 Bft)
01/12/2011 21:45 12,2 C 78 % 1012,3 hPa 0,0 mm 10,8 km/h (2 Bft) SO 225 0 min 0 W/m 8,5 C 12,2 C 10,8 km/h (2 Bft)
01/12/2011 21:50 12,3 C 77 % 1012,4 hPa 0,0 mm 6,8 km/h (2 Bft) S-SO 202 0 min 0 W/m 8,4 C 12,3 C 7,9 km/h (2 Bft)
01/12/2011 21:55 12,2 C 77 % 1012,4 hPa 0,0 mm 5,4 km/h (2 Bft) S-SO 202 0 min 0 W/m 8,3 C 12,2 C 6,1 km/h (2 Bft)
01/12/2011 22:00 12,2 C 76 % 1012,4 hPa 0,0 mm 9,4 km/h (2 Bft) SO 225 0 min 0 W/m 8,1 C 12,2 C 14,8 km/h (3 Bft)
01/12/2011 22:05 12,3 C 76 % 1012,4 hPa 0,0 mm 11,9 km/h (2 Bft) S 180 0 min 0 W/m 8,2 C 12,3 C 11,9 km/h (2 Bft)
01/12/2011 22:10 12,3 C 76 % 1012,4 hPa 0,0 mm 10,8 km/h (2 Bft) SO 225 0 min 0 W/m 8,2 C 12,3 C 10,8 km/h (2 Bft)
01/12/2011 22:15 12,3 C 76 % 1012,4 hPa 0,0 mm 7,6 km/h (2 Bft) O-SO 247 0 min 0 W/m 8,2 C 12,3 C 9,7 km/h (2 Bft)
01/12/2011 22:20 12,2 C 77 % 1012,4 hPa 0,0 mm 7,2 km/h (2 Bft) SO 225 0 min 0 W/m 8,3 C 12,2 C 7,2 km/h (2 Bft)
01/12/2011 22:25 12,1 C 77 % 1012,3 hPa 0,0 mm 8,3 km/h (2 Bft) SO 225 0 min 0 W/m 8,2 C 12,1 C 8,3 km/h (2 Bft)
01/12/2011 22:30 12,1 C 77 % 1012,3 hPa 0,0 mm 9,7 km/h (2 Bft) S-SO 202 0 min 0 W/m 8,2 C 12,1 C 13,0 km/h (3 Bft)
01/12/2011 22:35 12,1 C 78 % 1012,2 hPa 0,0 mm 5,0 km/h (1 Bft) S 180 0 min 0 W/m 8,4 C 12,1 C 7,6 km/h (2 Bft)
01/12/2011 22:40 11,9 C 78 % 1012,2 hPa 0,0 mm 11,2 km/h (2 Bft) SO 225 0 min 0 W/m 8,2 C 11,9 C 18,4 km/h (3 Bft)
01/12/2011 22:45 11,8 C 79 % 1011,9 hPa 0,0 mm 9,7 km/h (2 Bft) S-SO 202 0 min 0 W/m 8,3 C 11,8 C 14,8 km/h (3 Bft)
01/12/2011 22:50 11,8 C 79 % 1011,7 hPa 0,0 mm 14,8 km/h (3 Bft) S-SO 202 0 min 0 W/m 8,3 C 11,8 C 22,0 km/h (4 Bft)
_ Min-Heure 00:00 14:05 22:50 - 00:15 - - - - 16:50 06:50 17:05
Minimum _ 8,8 C 60 % 1011,7 hPa - 1,8 km/h (1 Bft) - - - - 7,0 C 7,4 C 3,2 km/h (1 Bft)
_ Max-Heure 14:10 00:10 00:05 22:50 13:00 - - 22:50 22:50 13:10 14:10 13:00
Maximum _ 15,5 C 93 % 1020,8 hPa 0,0 mm 18,7 km/h
S-SO (3 Bft)
- - 0 min 0 W/m 8,8 C 15,5 C 28,8 km/h
S-SO (5 Bft)
Moyenne _ 11,6 C 78 % 1017,5 hPa #0,0 mm 9,5 km/h (2 Bft) S-SO - #0 min. 0 W/m 7,8 C 11,4 C 13,5 km/h (3 Bft)
Saint Bonnet de Bellac- Haute Vienne - France